Dewpoint
-4 -5 -5 -4 -5 -6 -7 -8 -9 -8 -8 -8 -7 -7 -5 -4 -4 -6 -6 -5 -5 -5 -3 -2 -2 -2 -2 -1 0 1 1 1 0 0 2 2 1 1 0 0 1 1
-4 -3 -1 -4 -4 -3 -5 -7 -8 -8 -8 -8 -8 -7 -6 -5 -6 -6 -7 -7 -6 -5 -4 -3 -3 -3 -3 -2 -2 -2 -2 -1 -1 0 -0 -0 -0 0 0 2 1 1
-5 -4 -4 -3 -5 -7 -7 -7 -7 -8 -8 -7 -7 -7 -6 -5 -7 -7 -7 -7 -6 -6 -5 -3 -3 -4 0 -1 -2 -2 -1 -0 1 1 2 1 1 1 0 0 0 1
-5 -6 -5 -5 -5 -6 -7 -7 -7 -6 -5 -6 -6 -6 -6 -7 -7 -8 -8 -4 -6 -6 -6 -6 -5 -3 -1 -2 -1 -0 -0 0 0 1 1 2 2 2 1 1 2 1
-6 -7 -7 -7 -7 -7 -7 -7 -7 -6 -5 -6 -6 -6 -6 -7 -7 -7 -7 -7 -7 -6 -2 -4 -3 -3 -3 -3 -2 -1 -0 0 1 1 1 2 2 4 3 4 5 5
-6 -6 -6 -8 -8 -9 -9 -9 -9 -8 -8 -8 -8 -8 -8 -7 -7 -7 -7 -7 -7 -6 -5 -2 -2 -3 -2 -2 -1 -1 -1 -0 1 1 2 2 2 2 4 5 5 5
-6 -7 -8 -8 -8 -9 -9 -9 -9 -7 -9 -9 -8 -7 -8 -8 -8 -8 -8 -7 -7 -5 -4 -3 -3 -3 -3 -2 -1 -1 -1 -0 1 2 2 2 3 3 3 5 5 5
-7 -8 -8 -8 -8 -9 -8 -9 -8 -7 -7 -8 -8 -8 -7 -7 -8 -7 -6 -6 -5 -5 -4 -4 -3 -3 -2 -2 -1 -1 -1 1 2 3 3 3 4 4 4 5 5 5
-7 -8 -9 -8 -9 -9 -8 -9 -8 -8 -7 -7 -7 -7 -6 -6 -6 -6 -5 -5 -5 -5 -5 -4 -3 -3 -2 -0 1 0 -1 -1 1 3 4 4 4 5 5 6 6 6
-8 -8 -8 -8 -8 -8 -9 -8 -8 -8 -6 -7 -6 -6 -6 -6 -6 -6 -6 -6 -5 -5 -3 -3 -2 -1 -1 1 0 0 1 2 1 3 5 6 6 7 7 7 7 7
-8 -8 -8 -8 -9 -9 -9 -9 -7 -8 -7 -6 -6 -6 -5 -6 -6 -6 -6 -5 -5 -4 -3 -3 -2 -2 -1 -1 -1 -1 -0 1 2 4 5 5 6 6 8 7 7 7
-8 -9 -9 -9 -9 -9 -9 -8 -8 -8 -8 -6 -4 -6 -6 -5 -6 -6 -5 -5 -5 -4 -3 -3 -2 -2 -2 -2 -2 -1 -0 2 4 5 5 6 7 7 7 7 8 7
-8 -9 -9 -9 -8 -9 -8 -7 -7 -7 -7 -6 -5 -4 -5 -5 -5 -5 -4 -3 -3 -2 -2 -1 -1 -1 -1 -2 -2 -1 2 3 3 4 5 6 7 7 8 8 9 9
-8 -8 -9 -8 -8 -4 -7 -6 -5 -6 -6 -6 -4 -4 -3 -1 -1 -3 -4 -3 -2 -2 -1 -0 1 -0 -2 -1 1 2 3 3 3 4 5 6 6 7 7 7 8 8
-8 -8 -8 -8 -6 -7 -6 -5 -4 -5 -5 -5 -3 -1 -1 -1 -1 -3 -2 -0 -2 -1 -0 1 0 0 0 -0 1 2 3 3 3 4 5 5 6 6 7 7 7 8
-7 -7 -7 -7 -6 -6 -5 -5 -5 -4 -4 -3 -2 -1 -0 -0 -0 -1 1 0 -1 0 0 -0 -0 -0 2 8 9 3 2 2 3 3 4 5 5 5 6 7 7 8
-7 -6 -6 -5 -5 -4 -4 -3 -4 -1 -0 -2 -2 -1 0 1 -0 1 1 0 -0 -0 -0 -1 -1 -0 7 11 13 15 9 3 2 3 3 4 4 5 5 6 7 8
-5 -4 -4 -3 -3 -3 -3 -1 -1 -0 -1 -0 -1 -1 -0 1 1 1 0 0 -0 -0 -1 -1 -1 4 10 12 14 15 15 9 6 5 5 5 6 6 6 7 8 9
-3 -2 -1 -1 -2 0 1 2 1 0 0 0 0 0 1 1 1 0 -0 -1 -1 -1 -2 -2 -2 5 11 13 15 16 17 15 11 9 7 7 8 8 8 9 9 10
-0 0 -1 3 1 2 2 2 2 1 1 1 0 0 1 1 0 -1 -1 -1 -2 -2 -3 -2 -2 4 11 13 15 16 17 16 12 12 11 11 11 11 11 12 11 12
0 -0 -0 1 2 2 2 2 1 1 1 1 0 -0 0 -1 -1 -1 -2 -2 -2 -3 -3 -3 -3 7 11 13 15 16 17 16 12 12 12 12 12 12 13 13 14 15
2 2 1 2 2 1 1 1 1 1 0 0 -1 -1 -1 -1 -2 -2 -2 -3 -3 -3 -4 -4 -4 9 12 14 15 16 16 12 11 12 12 12 12 13 13 13 14 14
3 2 1 1 1 1 1 1 1 1 -1 -0 -1 -2 -2 -3 -3 -3 -3 -4 -4 -4 -4 -4 -4 3 11 13 14 16 15 11 12 12 12 12 13 13 14 15 16 17
5 3 2 2 1 1 1 1 1 0 -1 -1 -2 -3 -3 -3 -3 -4 -4 -4 -4 -5 -4 -5 -4 1 9 12 14 15 14 11 11 10 11 12 12 14 15 16 18 19
5 4 3 2 2 2 1 1 0 -0 -0 -1 -3 -3 -3 -3 -3 -4 -5 -5 -5 -5 -2 -3 -4 0 8 11 14 15 13 11 11 10 10 11 12 13 15 16 18 20
5 4 3 3 3 2 2 1 1 -0 -1 -2 -3 -3 -4 -5 -5 -5 -5 -5 -5 -5 -5 -4 -4 -3 0 9 12 14 16 12 11 11 11 12 13 14 15 18 18 18